Home > Time Zones > World Clock > Weather > Aktau > Past weeks

Flag for Kazakhstan Weather past 2 weeks in Aktau, Kazakhstan

Now
32 °F

Mostly cloudy.


Feels Like: 18 °F
Forecast: 29 / 44 °F
Wind: 29 mph from East

Location: Aktau

Current Time: Mar 29, 2015 at 12:42:48 PM

Latest Report: Mar 29, 2015 at 12:00 PM


Visibility: 1 mi

Pressure: 30.45 "Hg

Humidity: 21%

Dew point: -4 °F

Location of AktauLocation

Historic Weather in Aktau — Graph

°F

Aktau temperature yesterday

Maximum temperature yesterday: 64 °F (at 2:30 PM)
Minimum temperature yesterday: 39 °F (at 3:30 AM)
Average temperature yesterday: 50 °F

Past Weeks' High & Low Weather Summary

 TemperatureHumidityPressure
High64 °F (Mar 28, 2:30 PM)87% (Mar 19, 2:30 AM)30.54 "Hg (Mar 19, 2:30 AM)
Low23 °F (Mar 25, 6:00 AM)13% (Mar 15, 3:30 PM)29.74 "Hg (Mar 21, 7:30 AM)
Average43 °F53%30.26 "Hg
* Reported Mar 14 11:00 AM — Mar 29 11:30 AM, Aktau, Weather by CustomWeather, © 2015

Note: Actual official high and low records may vary slightly from our data, if they occured in-between our weather recording intervals... More about our weather records

Advertising

Aktau weather history for previous 24 hours

 ConditionsComfort  
Time TempWeatherWind HumidityBarometerVisibility
11:30 AM
Sun, Mar 29
30 °FLow clouds.31 mph22%30.45 "Hg1 mi
11:00 AM30 °FPartly sunny.36 mph22%30.45 "Hg1 mi
10:30 AM30 °FPartly sunny.33 mph22%30.45 "Hg1 mi
10:00 AM28 °FLow clouds.36 mph26%30.42 "Hg0 mi
9:30 AM28 °FLow clouds.36 mph29%30.42 "Hg0 mi
9:00 AM28 °FLow clouds.38 mph29%30.42 "Hg1 mi
8:30 AM28 °FLow clouds.36 mph29%30.39 "Hg1 mi
8:00 AM28 °FPassing clouds.36 mph31%30.39 "Hg1 mi
7:30 AM28 °FPartly cloudy.33 mph37%30.39 "Hg1 mi
7:00 AM28 °FPartly cloudy.38 mph43%30.39 "Hg1 mi
6:30 AM28 °FPartly cloudy.36 mph43%30.39 "Hg1 mi
6:00 AM30 °FPartly cloudy.31 mph40%30.39 "Hg1 mi
5:30 AM30 °FPartly cloudy.36 mph37%30.36 "Hg1 mi
5:00 AM30 °FPartly cloudy.33 mph37%30.36 "Hg1 mi
4:30 AM32 °FPartly cloudy.36 mph37%30.36 "Hg1 mi
4:00 AM32 °FPartly cloudy.36 mph37%30.36 "Hg1 mi
3:30 AM34 °FPartly cloudy.36 mph35%30.36 "Hg1 mi
3:00 AM36 °FPartly cloudy.33 mph41%30.36 "Hg1 mi
2:30 AM36 °FPassing clouds.36 mph44%30.33 "Hg1 mi
1:30 AM37 °FPassing clouds.33 mph52%30.36 "Hg2 mi
1:00 AM39 °FPassing clouds.33 mph52%30.33 "Hg2 mi
12:30 AM39 °FPassing clouds.33 mph56%30.33 "Hg2 mi
12:00 AM41 °FClear.26 mph57%30.33 "Hg10 mi
11:30 PM
Sat, Mar 28
41 °FClear.22 mph57%30.33 "Hg4 mi
11:00 PM43 °FDuststorm.22 mph57%30.33 "Hg3 mi
10:30 PM43 °FClear.22 mph57%30.30 "Hg4 mi
10:00 PM45 °FClear.26 mph53%30.30 "Hg4 mi
9:30 PM45 °FDuststorm.29 mph53%30.30 "Hg3 mi
9:00 PM48 °FDuststorm.22 mph50%30.30 "Hg2 mi
8:30 PM50 °FDuststorm.26 mph47%30.27 "Hg3 mi
8:00 PM50 °FClear.26 mph50%30.27 "Hg5 mi
7:30 PM52 °FClear.22 mph47%30.24 "Hg4 mi
7:00 PM55 °FScattered clouds.24 mph44%30.24 "Hg3 mi
6:30 PM57 °FDuststorm.22 mph41%30.24 "Hg3 mi
6:00 PM59 °FDuststorm.24 mph42%30.24 "Hg3 mi
5:30 PM57 °FSunny.8 mph44%30.24 "Hg10 mi
5:00 PM57 °FSunny.6 mph44%30.24 "Hg10 mi
4:30 PM59 °FSunny.10 mph42%30.24 "Hg10 mi
4:00 PM61 °FSunny.6 mph45%30.24 "Hg10 mi
3:30 PM64 °FSunny.13 mph32%30.24 "Hg10 mi
3:00 PM63 °FPartly sunny.13 mph34%30.24 "HgN/A
2:30 PM64 °FPartly sunny.17 mph32%30.24 "HgN/A
2:00 PM63 °FPartly sunny.8 mph39%30.24 "HgN/A
1:30 PM63 °FPartly sunny.8 mph39%30.24 "HgN/A
1:00 PM63 °FBroken clouds.10 mph37%30.27 "HgN/A
12:30 PM61 °FPassing clouds.8 mph39%30.27 "HgN/A
12:00 PM59 °FSunny.10 mph42%30.27 "Hg10 mi
Weather by CustomWeather, © 2015

See weather overviewHow to use our weather pages